Regional Weather Roundup
Issued by NWS

Home | Current Version | Previous Version | Graphics & Text | Print | Product List | Glossary On
Versions: 1 2 3 4 5 6 7 8 9 10 11 12 13 14 15 16 17 18 19 20 21 22 23 24 25 26 27 28 29 30 31 32 33 34 35 36 37 38 39 40 41 42 43 44 45 46 47 48 49 50
000
ASUS45 KABQ 251101
RWRNM
WEATHER ROUNDUP FOR NEW MEXICO
NATIONAL WEATHER SERVICE ALBUQUERQUE NM
500 AM MDT SAT OCT 25 2014

NOTE: "FAIR" MEANS FEW OR NO CLOUDS BELOW 12,000 FEET AGL WITH NO
       SIGNIFICANT WEATHER OR OBSTRUCTIONS TO VISION.

      THIS PRODUCT IS RELEASED AS TWO VERSIONS.  ONE VERSION NEAR
      THE TOP OF THE HOUR CONTAINING PRELIMINARY DATA FROM ALBUQUERQUE
      AND OTHER STATIONS.  A FINAL VERSION WITH ADDITIONAL DATA IS
      ISSUED ABOUT 10 MINUTES AFTER THE HOUR.

NMZ501-503-504-510>518-251200-
NORTHWEST PLATEAU/NORTHCENTRAL MOUNTAINS

CITY           SKY/WX    TMP DP  RH WIND       PRES   REMARKS
FARMINGTON     CLEAR     42  31  64 E8        30.29S
LOS ALAMOS     PTCLDY    55  20  25 CALM      30.38S
SANTA FE       CLEAR     47  23  38 N13       30.32F
TAOS           PTCLDY    34  19  55 N7        30.39S WCI  28
ANGEL FIRE     FAIR      22  18  87 CALM      30.47F

$$
NMZ402-403-502-505>509-251200-
WESTCENTRAL MOUNTAINS/SOUTHWEST MOUNTAINS

CITY           SKY/WX    TMP DP  RH WIND       PRES   REMARKS
GALLUP         PTCLDY    37  29  72 CALM      30.35F
GRANTS         CLEAR     32  25  74 NW6       30.38S WCI  26
SILVER CITY    CLEAR     50  39  66 N10       30.29F

$$
NMZ407-409-411-412-251200-
SOUTHERN DESERTS

CITY           SKY/WX    TMP DP  RH WIND       PRES   REMARKS
LORDSBURG      FAIR      46  43  87 SE6       30.21S
DEMING         CLEAR     50  44  80 W5        30.22S
HOLLOMAN AFB   PTCLDY    53  44  73 N3        30.20S
T OR C         CLEAR     55  43  63 NW7       30.24S

$$
NMZ519>523-251200-
CENTRAL VALLEYS/CENTRAL HIGHLANDS

CITY           SKY/WX    TMP DP  RH WIND       PRES   REMARKS
ALBUQUERQUE    CLEAR     54  36  50 CALM      30.29S
DOUBLE EAGLE   CLEAR     41  29  62 CALM      30.31S
MORIARTY ARPT  FAIR      32  26  77 NE3       30.34S
CLINES CORNERS CLEAR     45  28  51 W13       30.33S
BELEN          NOT AVBL
SOCORRO        FAIR      48  41  77 CALM      30.26S

$$
NMZ524>526-539-540-251200-
SOUTHCENTRAL MOUNTAINS

CITY           SKY/WX    TMP DP  RH WIND       PRES   REMARKS
RUIDOSO        CLEAR     50  34  53 SW8       30.37S

$$
NMZ527>531-251200-
NORTHEAST HIGHLANDS/NORTHEAST PLAINS

CITY           SKY/WX    TMP DP  RH WIND       PRES   REMARKS
LAS VEGAS      CLEAR     43  21  41 N9        30.31S
RATON          PTCLDY    40  30  67 NE7       30.27F
CLAYTON        CLEAR     58  31  35 W9        30.18

$$
NMZ532>537-251200-
EASTCENTRAL PLAINS

CITY           SKY/WX    TMP DP  RH WIND       PRES   REMARKS
TUCUMCARI      CLEAR     53  45  74 W8        30.15S
CANNON AFB     CLEAR     57  49  75 W7        30.19S
CLOVIS AIRPORT CLEAR     52  45  76 SW6       30.22R

$$
NMZ028-029-538-251200-
SOUTHEAST PLAINS

CITY           SKY/WX    TMP DP  RH WIND       PRES   REMARKS
ROSWELL        CLEAR     54  51  90 CALM      30.17S
CARLSBAD       CLEAR     54  50  86 NW3       30.15S


$$



USA.gov is the U.S. government's official web portal to all federal, state and local government web resources and services.